D1965 Weather Reports


Display with metric or nautical units.
time (UTC)temp
F
wind
direction
speed
MPH
gust
MPH
rain 1hr
in
rain 24hr
in
rain mn
in
humidity
%
barometer
mb
20260506211506 49 226 0.0 3.0 0.00 0.00 0.00 80 1013.0
20260506211006 49 225 2.0 4.0 0.00 0.00 0.00 80 1012.9
20260506210505 49 225 2.0 4.0 0.00 0.00 0.00 80 1013.0
20260506210007 49 229 1.0 4.0 0.00 0.00 0.00 80 1012.9
20260506205506 49 231 1.0 4.0 0.00 0.00 0.00 80 1013.0
20260506205006 49 224 0.0 3.0 0.00 0.00 0.00 80 1013.0
20260506204505 50 224 0.0 3.0 0.00 0.00 0.00 79 1013.0
20260506204007 50 243 0.0 3.0 0.00 0.00 0.00 79 1012.9
20260506203506 50 241 1.0 4.0 0.00 0.00 0.00 79 1012.9
20260506202007 50 214 1.0 5.0 0.00 0.00 0.00 78 1012.8
20260506201506 50 196 0.0 5.0 0.00 0.00 0.00 77 1012.8
20260506201007 50 221 0.0 4.0 0.00 0.00 0.00 77 1012.8
20260506200505 50 219 1.0 4.0 0.00 0.00 0.00 76 1012.8
20260506200007 50 215 1.0 4.0 0.00 0.00 0.00 76 1012.7
20260506195505 50 221 1.0 6.0 0.00 0.00 0.00 76 1012.7
20260506195006 50 233 1.0 6.0 0.00 0.00 0.00 76 1012.7
20260506194505 50 237 1.0 5.0 0.00 0.00 0.00 75 1012.7
20260506194007 50 223 0.0 4.0 0.00 0.00 0.00 75 1012.8
20260506193505 51 192 0.0 3.0 0.00 0.00 0.00 74 1012.8
20260506193006 51 191 1.0 3.0 0.00 0.00 0.00 74 1012.7
20260506192506 51 200 1.0 4.0 0.00 0.00 0.00 74 1012.7
20260506192006 51 210 1.0 5.0 0.00 0.00 0.00 73 1012.8
20260506191506 51 218 2.0 6.0 0.00 0.00 0.00 73 1012.7
20260506191006 51 228 2.0 6.0 0.00 0.00 0.00 73 1012.8
20260506190007 51 221 2.0 7.0 0.00 0.00 0.00 72 1012.8
20260506185505 51 226 2.0 7.0 0.00 0.00 0.00 72 1012.7
20260506184505 51 224 2.0 7.0 0.00 0.00 0.00 71 1012.7
20260506183506 52 230 3.0 9.0 0.00 0.00 0.00 70 1012.6
20260506183006 52 229 3.0 7.0 0.00 0.00 0.00 69 1012.6
20260506182006 52 224 3.0 7.0 0.00 0.00 0.00 71 1012.6
20260506181505 52 225 3.0 7.0 0.00 0.00 0.00 71 1012.5
20260506181007 52 230 3.0 10.0 0.00 0.00 0.00 70 1012.5
20260506180006 53 235 4.0 10.0 0.00 0.00 0.00 68 1012.6
20260506175007 53 234 4.0 11.0 0.00 0.00 0.00 69 1012.5
20260506174505 53 229 3.0 10.0 0.00 0.00 0.00 70 1012.5
20260506174006 53 223 3.0 7.0 0.00 0.00 0.00 70 1012.6
20260506173505 54 220 2.0 7.0 0.00 0.00 0.00 70 1012.4
20260506173006 54 198 2.0 8.0 0.00 0.00 0.00 69 1012.4
20260506172505 53 181 3.0 8.0 0.00 0.00 0.00 71 1012.5
20260506171505 53 197 2.0 9.0 0.00 0.00 0.00 68 1012.5
20260506171005 53 191 3.0 9.0 0.00 0.00 0.00 67 1012.4
20260506170505 53 183 3.0 8.0 0.00 0.00 0.00 66 1012.4
20260506170007 53 177 3.0 7.0 0.00 0.00 0.00 67 1012.5
20260506165505 53 183 3.0 8.0 0.00 0.00 0.00 67 1012.5
20260506165006 54 193 3.0 8.0 0.00 0.00 0.00 68 1012.4
20260506164505 54 182 2.0 8.0 0.00 0.00 0.00 68 1012.5
20260506163505 54 181 3.0 8.0 0.00 0.00 0.00 69 1012.6
20260506163006 54 182 2.0 8.0 0.00 0.00 0.00 68 1012.7
20260506162505 54 174 2.0 7.0 0.00 0.00 0.00 68 1012.6
20260506162005 54 188 3.0 9.0 0.00 0.00 0.00 67 1012.6
20260506161006 54 208 2.0 8.0 0.00 0.00 0.00 66 1012.7
20260506160505 55 184 1.0 6.0 0.00 0.00 0.00 65 1012.7
20260506160006 55 168 1.0 5.0 0.00 0.00 0.00 65 1012.7
20260506155505 55 169 1.0 5.0 0.00 0.00 0.00 64 1012.7
20260506155006 55 166 0.0 3.0 0.00 0.00 0.00 63 1012.7
20260506154505 55 173 1.0 6.0 0.00 0.00 0.00 63 1012.7
20260506152505 56 221 1.0 4.0 0.00 0.00 0.00 59 1012.9
20260506152006 56 229 1.0 4.0 0.00 0.00 0.00 55 1012.9
20260506151505 56 266 1.0 3.0 0.00 0.00 0.00 54 1013.0
20260506151005 56 276 1.0 3.0 0.00 0.00 0.00 55 1013.0
20260506150505 56 253 1.0 5.0 0.00 0.00 0.00 55 1013.0
20260506150006 57 250 2.0 5.0 0.00 0.00 0.00 56 1013.0
20260506145505 57 252 2.0 4.0 0.00 0.00 0.00 52 1013.0
20260506144007 58 262 1.0 4.0 0.00 0.00 0.00 49 1013.1
20260506143505 58 259 2.0 5.0 0.00 0.00 0.00 49 1013.0
20260506143006 59 267 2.0 5.0 0.00 0.00 0.00 49 1013.0
20260506142505 60 275 3.0 6.0 0.00 0.00 0.00 50 1013.0
20260506140505 62 273 1.0 7.0 0.00 0.00 0.00 52 1013.0
20260506140007 61 287 0.0 4.0 0.00 0.00 0.00 50 1013.1
20260506135505 60 288 1.0 4.0 0.00 0.00 0.00 52 1013.1
20260506135006 59 298 1.0 4.0 0.00 0.00 0.00 50 1013.2
20260506134505 60 306 1.0 4.0 0.00 0.00 0.00 55 1013.3
20260506134006 61 339 1.0 5.0 0.00 0.00 0.00 48 1013.3
20260506133505 62 309 1.0 5.0 0.00 0.00 0.00 52 1013.2
20260506133006 61 268 2.0 7.0 0.00 0.00 0.00 56 1013.3
20260506132505 60 265 2.0 7.0 0.00 0.00 0.00 51 1013.3
20260506132006 61 253 3.0 7.0 0.00 0.00 0.00 51 1013.3
20260506131505 61 254 2.0 7.0 0.00 0.00 0.00 46 1013.3
20260506131006 61 270 1.0 6.0 0.00 0.00 0.00 47 1013.3
20260506130504 61 0 0.0 0.0 0.00 0.00 0.00 55 1013.2
20260506130006 60 268 0.0 3.0 0.00 0.00 0.00 50 1013.4
20260506125505 60 272 1.0 4.0 0.00 0.00 0.00 48 1013.3
20260506125006 60 272 1.0 4.0 0.00 0.00 0.00 50 1013.3
20260506124505 60 270 1.0 6.0 0.00 0.00 0.00 55 1013.4
20260506124006 59 265 2.0 6.0 0.00 0.00 0.00 54 1013.4
20260506123505 58 267 1.0 4.0 0.00 0.00 0.00 51 1013.3
20260506123006 58 272 1.0 4.0 0.00 0.00 0.00 48 1013.5
20260506122505 58 263 1.0 4.0 0.00 0.00 0.00 52 1013.5
20260506122005 60 252 0.0 4.0 0.00 0.00 0.00 48 1013.5
20260506121505 60 0 0.0 0.0 0.00 0.00 0.00 54 1013.4
20260506121007 61 0 0.0 0.0 0.00 0.00 0.00 52 1013.5
20260506120505 61 269 0.0 1.0 0.00 0.00 0.00 49 1013.7
20260506120005 61 267 1.0 6.0 0.00 0.00 0.00 52 1013.8
20260506115006 60 179 1.0 4.0 0.00 0.00 0.00 50 1013.8
20260506114504 59 165 1.0 5.0 0.00 0.00 0.00 52 1013.8
20260506114006 59 177 2.0 5.0 0.00 0.00 0.00 53 1013.7
20260506113505 59 196 1.0 5.0 0.00 0.00 0.00 50 1013.7
20260506112504 58 0 0.0 0.0 0.00 0.00 0.00 54 1013.9
20260506112006 58 0 0.0 0.0 0.00 0.00 0.00 54 1013.9
20260506111505 58 50 0.0 3.0 0.00 0.00 0.00 53 1013.9
20260506110505 59 27 1.0 4.0 0.00 0.00 0.00 52 1014.0
20260506110006 59 287 0.0 2.0 0.00 0.00 0.00 53 1014.0
20260506105505 59 312 0.0 3.0 0.00 0.00 0.00 53 1013.9
20260506105005 58 31 1.0 4.0 0.00 0.00 0.00 58 1014.0
20260506104504 59 31 1.0 4.0 0.00 0.00 0.00 57 1013.9
20260506104006 59 258 0.0 2.0 0.00 0.00 0.00 58 1014.1
20260506103505 59 327 0.0 2.0 0.00 0.00 0.00 56 1014.1
20260506103005 58 37 0.0 2.0 0.00 0.00 0.00 59 1014.2
20260506102006 57 41 0.0 5.0 0.00 0.00 0.00 61 1014.2
20260506101505 57 36 1.0 5.0 0.00 0.00 0.00 63 1014.2
20260506101006 57 38 1.0 4.0 0.00 0.00 0.00 65 1014.4
20260506100505 57 41 1.0 4.0 0.00 0.00 0.00 64 1014.4
20260506100005 56 37 1.0 4.0 0.00 0.00 0.00 65 1014.5
20260506095505 56 29 0.0 4.0 0.00 0.00 0.00 65 1014.5
20260506094504 54 25 1.0 4.0 0.00 0.00 0.00 69 1014.6
20260506094006 54 36 2.0 5.0 0.00 0.00 0.00 68 1014.6
20260506092504 52 40 1.0 6.0 0.00 0.00 0.00 70 1014.7
20260506092005 52 46 2.0 6.0 0.00 0.00 0.00 71 1014.7
20260506091505 53 48 1.0 4.0 0.00 0.00 0.00 70 1014.7
20260506091005 53 43 0.0 4.0 0.00 0.00 0.00 68 1014.7
20260506090504 52 25 0.0 4.0 0.00 0.00 0.00 69 1014.8
20260506085505 51 32 0.0 4.0 0.00 0.00 0.00 71 1014.8
20260506085005 51 34 1.0 4.0 0.00 0.00 0.00 72 1014.7
20260506084505 50 34 1.0 4.0 0.00 0.00 0.00 73 1014.8
20260506084005 50 32 1.0 4.0 0.00 0.00 0.00 72 1014.8
20260506083504 49 34 1.0 4.0 0.00 0.00 0.00 73 1014.9
20260506083006 49 41 1.0 4.0 0.00 0.00 0.00 75 1014.8
20260506082504 48 38 2.0 5.0 0.00 0.00 0.00 75 1014.9
20260506082006 48 39 2.0 5.0 0.00 0.00 0.00 74 1014.9
20260506081504 47 43 1.0 5.0 0.00 0.00 0.00 73 1014.9
20260506081006 47 38 1.0 6.0 0.00 0.00 0.00 74 1014.9
20260506073504 46 36 0.0 2.0 0.00 0.00 0.00 77 1015.0
20260506072505 45 36 0.0 3.0 0.00 0.00 0.00 78 1014.9
20260506072006 44 35 0.0 1.0 0.00 0.00 0.00 79 1014.9
20260506071504 44 36 0.0 2.0 0.00 0.00 0.00 81 1015.0
20260506071006 44 29 1.0 3.0 0.00 0.00 0.00 80 1014.9
20260506070504 43 21 1.0 3.0 0.00 0.00 0.00 80 1014.9
20260506062505 41 18 1.0 4.0 0.00 0.00 0.00 85 1014.8
20260506061504 40 358 0.0 3.0 0.00 0.00 0.00 87 1014.7
20260506061005 40 359 0.0 3.0 0.00 0.00 0.00 87 1014.7
20260506060505 40 13 0.0 1.0 0.00 0.00 0.00 87 1014.7
20260506051005 39 0 0.0 0.0 0.00 0.00 0.00 88 1014.4
20260506044504 39 0 0.0 0.0 0.00 0.00 0.00 86 1014.4
20260506044005 40 0 0.0 0.0 0.00 0.00 0.00 86 1014.4
20260506043505 40 0 0.0 0.0 0.00 0.00 0.00 85 1014.4
20260506043005 40 0 0.0 0.0 0.00 0.00 0.00 85 1014.3
20260506042504 40 6 0.0 2.0 0.00 0.00 0.00 85 1014.4
20260506042005 40 6 0.0 2.0 0.00 0.00 0.00 85 1014.5
20260506041504 40 6 0.0 2.0 0.00 0.00 0.00 85 1014.4
20260506041005 41 9 0.0 4.0 0.00 0.00 0.00 85 1014.6
20260506040005 41 20 0.0 2.0 0.00 0.00 0.00 84 1014.5
20260506035504 41 21 0.0 1.0 0.00 0.00 0.00 84 1014.6
20260506034504 41 21 0.0 2.0 0.00 0.00 0.00 84 1014.7
20260506033006 42 26 1.0 3.0 0.00 0.00 0.00 84 1014.8
20260506032504 42 29 1.0 3.0 0.00 0.00 0.00 84 1014.8
20260506032005 42 29 0.0 2.0 0.00 0.00 0.00 83 1014.9
20260506031504 42 29 0.0 3.0 0.00 0.00 0.00 83 1014.9
20260506030504 42 26 0.0 1.0 0.00 0.00 0.00 83 1014.9
20260506024504 43 20 1.0 4.0 0.00 0.00 0.00 82 1015.1
20260506024005 43 18 1.0 4.0 0.00 0.00 0.00 82 1015.1
20260506023504 43 12 0.0 3.0 0.00 0.00 0.00 82 1015.0
20260506023005 43 9 1.0 5.0 0.00 0.00 0.00 82 1015.0
20260506022504 43 10 1.0 5.0 0.00 0.00 0.00 82 1015.0
20260506022005 43 26 1.0 4.0 0.00 0.00 0.00 82 1015.1
20260506021504 43 35 2.0 5.0 0.00 0.00 0.00 81 1015.0
20260506021005 43 33 3.0 8.0 0.00 0.00 0.00 81 1015.0
20260506020504 43 31 2.0 8.0 0.00 0.00 0.00 81 1015.0
20260506020005 43 24 2.0 6.0 0.00 0.00 0.00 82 1015.1
20260506015504 43 28 3.0 6.0 0.00 0.00 0.00 82 1015.1
20260506014504 44 36 4.0 9.0 0.00 0.00 0.00 82 1015.2
20260506014005 44 30 3.0 6.0 0.00 0.00 0.00 82 1015.2
20260506013504 44 29 3.0 6.0 0.00 0.00 0.00 82 1015.1
20260506012504 44 34 2.0 8.0 0.00 0.00 0.00 85 1015.2
20260506012006 45 32 2.0 6.0 0.00 0.00 0.00 86 1015.3
20260506011503 45 25 2.0 5.0 0.00 0.00 0.00 86 1015.3
20260506011006 45 25 2.0 5.0 0.00 0.00 0.00 86 1015.3
20260506010503 45 27 2.0 6.0 0.00 0.00 0.00 86 1015.3
20260506010005 45 29 2.0 7.0 0.00 0.00 0.00 86 1015.1
20260506005504 45 26 2.0 7.0 0.00 0.00 0.00 86 1015.2
20260506005005 45 20 1.0 5.0 0.00 0.00 0.00 87 1015.3
20260506004504 45 17 0.0 4.0 0.00 0.00 0.00 88 1015.2
20260506004004 45 6 0.0 2.0 0.00 0.00 0.00 88 1015.2
20260506003504 45 6 0.0 2.0 0.00 0.00 0.00 88 1015.2
20260506003005 45 6 0.0 2.0 0.00 0.00 0.00 88 1015.2
20260506001504 46 0 0.0 0.0 0.00 0.00 0.00 88 1015.1
20260506000504 46 0 0.0 0.0 0.00 0.00 0.00 88 1015.1
20260506000005 46 0 0.0 0.0 0.00 0.00 0.00 89 1015.2
20260505235504 46 0 0.0 0.0 0.00 0.00 0.00 88 1015.1
20260505234504 46 0 0.0 0.0 0.00 0.00 0.00 88 1015.3
20260505234004 46 0 0.0 0.0 0.00 0.00 0.00 88 1015.2
20260505233504 46 0 0.0 0.0 0.00 0.00 0.00 88 1015.3
20260505233005 46 0 0.0 0.0 0.00 0.00 0.00 89 1015.3
20260505232503 47 0 0.0 0.0 0.00 0.00 0.00 88 1015.2
20260505232005 47 0 0.0 0.0 0.00 0.00 0.00 88 1015.4
20260505231504 47 0 0.0 0.0 0.00 0.00 0.00 88 1015.4
20260505231005 47 0 0.0 0.0 0.00 0.00 0.00 87 1015.5
20260505225504 47 0 0.0 0.0 0.00 0.00 0.00 88 1015.7
20260505225004 47 0 0.0 0.0 0.00 0.00 0.00 88 1015.6
20260505224504 47 0 0.0 0.0 0.00 0.00 0.00 88 1015.7
20260505224006 47 0 0.0 0.0 0.00 0.00 0.00 88 1015.7
20260505223504 47 0 0.0 0.0 0.00 0.00 0.00 88 1015.7
20260505223004 47 0 0.0 0.0 0.00 0.00 0.00 88 1015.7
20260505222504 47 0 0.0 0.0 0.00 0.00 0.00 88 1015.7
20260505222005 47 0 0.0 0.0 0.00 0.00 0.00 87 1015.8
20260505221005 47 0 0.0 0.0 0.00 0.00 0.00 87 1015.8
20260505220503 47 0 0.0 0.0 0.00 0.00 0.00 87 1015.8
20260505220004 47 0 0.0 0.0 0.00 0.00 0.00 86 1015.8
20260505215503 47 0 0.0 0.0 0.00 0.00 0.00 86 1015.9
20260505215007 47 0 0.0 0.0 0.00 0.00 0.00 85 1015.9
20260505214505 47 0 0.0 0.0 0.00 0.00 0.00 86 1016.0
20260505214006 47 0 0.0 0.0 0.00 0.00 0.00 86 1015.9
20260505213506 47 0 0.0 0.0 0.00 0.00 0.00 86 1015.9
20260505213006 48 0 0.0 0.0 0.00 0.00 0.00 86 1015.8
20260505212506 48 0 0.0 0.0 0.00 0.00 0.00 86 1015.8
20260505212006 48 0 0.0 0.0 0.00 0.00 0.00 86 1015.8